Regional Weather Roundup
Issued by NWS Charleston, SC

Current Version | Previous Version | Graphics & Text | Print | Product List | Glossary On
Versions: 1 2 3 4 5 6 7 8 9 10 11 12 13 14 15 16 17 18 19 20 21 22 23 24 25 26 27 28 29 30 31 32 33 34 35 36 37 38 39 40 41 42 43 44 45 46 47 48 49 50
514 ASUS42 KCHS 050212 RWRCHS REGIONAL WEATHER ROUNDUP NATIONAL WEATHER SERVICE CHARLESTON SC 900 PM EST SUN DEC 04 2016 NOTE: "FAIR" INDICATES FEW OR NO CLOUDS BELOW 12,000 FEET WITH NO SIGNIFICANT WEATHER AND/OR OBSTRUCTIONS TO VISIBILITY. NOT ALL STATIONS ARE QUALITY CONTROLLED. USE DATA WITH CAUTION... ESPECIALLY DEWPOINT OBSERVATIONS. SCZ027-030-031-034>040-042>050-050300- ...SOUTHEAST SOUTH CAROLINA... CITY SKY/WX TMP DP RH WIND PRES REMARKS N CHARLESTON CLOUDY 57 51 80 NE6 30.06F WATERFRONT PRK N/A 60 57 89 NE6 30.05R MOUNT PLEASANT NOT AVBL JOHNS ISLAND CLOUDY 61 57 88 CALM 30.06S PINOPOLIS N/A 50 46 87 E9 29.99F MONCKS CORNER CLOUDY 50 43 76 CALM 30.07F SUMMERVILLE CLOUDY 50 45 81 CALM 30.08F BEAUFORT MCAS CLOUDY 59 54 83 E7 30.04F BEAUFORT ARPT CLOUDY 59 55 88 NE5 30.04F HILTON HEAD IS CLOUDY 63 59 88 CALM 30.04F WALTERBORO CLOUDY 54 54 100 NE6 30.07S ALLENDALE CLOUDY 50 48 93 VRB3 30.04F ...SOUTHERN MIDLANDS AND PEE DEE... CITY SKY/WX TMP DP RH WIND PRES REMARKS GEORGETOWN CLOUDY 59 54 82 E17 30.07F KINGSTREE DRIZZLE 45 41 87 E5 30.09F ORANGEBURG RAIN 45 44 97 E7 30.07F BARNWELL NOT AVBL AIKEN RAIN 43 41 93 NE7 30.10R MANNING NOT AVBL COLUMBIA LGT RAIN 46 43 89 VRB5 30.08F FOG SUMTER LGT RAIN 45 43 93 NE6 30.06F FLORENCE CLOUDY 45 43 93 E6 30.10F MYRTLE BEACH MOCLDY 50 46 87 NE9 30.11 N MYRTLE BEACH CLOUDY 48 46 93 E8 30.09F $$ GAZ063-065-086>088-099>101-113>116-118-119-134>141-150-050300- ...SOUTHEAST GEORGIA... CITY SKY/WX TMP DP RH WIND PRES REMARKS SAVANNAH ARPT CLOUDY 62 56 80 E3 30.03F HUNTER AAF CLOUDY 63 63 100 CALM 30.00F FORT STEWART CLOUDY 63 58 84 CALM 30.00S STATESBORO CLOUDY 56 52 85 CALM 30.04R SYLVANIA CLOUDY N/A N/A N/A E5 30.04S CLAXTON CLOUDY 60 58 94 CALM 30.03R ...CSRA...CENTRAL AND FAR SOUTHEAST GEORGIA... CITY SKY/WX TMP DP RH WIND PRES REMARKS THOMSON CLOUDY 47 47 100 CALM 30.11S AUGUSTA-BUSH LGT RAIN 48 46 93 N6 30.06S FOG AUGUSTA-DANIEL HVY RAIN 47 43 86 N10 30.07S FOG SWAINSBORO CLOUDY 52 46 82 CALM 30.04R VIDALIA CLOUDY 61 59 94 E6 30.02S EASTMAN LGT RAIN 54 43 65 CALM 30.05R HAZLEHURST CLOUDY 64 61 90 CALM 30.00R ALMA CLOUDY 64 61 90 SE3 29.99S WAYCROSS CLEAR 70 67 91 S6 30.01R JESUP MOCLDY 66 64 94 S3 30.01R BAXLEY FAIR 63 63 100 CALM 29.99S BRUNSWICK CLOUDY 70 66 88 S8 30.04R SAINT SIMONS CLOUDY 67 63 87 S6 30.03R $$ SCZ027-028-034-036>038-045-046-048>050-GAZ119-141-050300- ...LAKE AND SUPPLEMENTAL COASTAL OBSERVATIONS... STATION/POSITION TIME TEMP WIND PRES WAVE SWELL AIR SEA DIR/SP/G HT/PER HT/PER/DIR (UTC) (F) (DEG/KT/KT) (MB) (FT/S) (FT/S/D) WINYAH BAY 0045 58 80/ 12 1018.0 LAKE MURRAY 0120 45 60/ 3/ 7 1018.3 ACE BASIN NERRS 0045 58 30/ 3 1017.0 FORT PULASKI 0148 63 61 100/ 6/ 6 1017.0F SAPELO ISLAND 0100 68 160/ 7 1016.0 $$ ANZ835-935-AMZ111-154-330-350-352-354-370-450-454-472-050300- ...C-MAN AND BUOY OBSERVATIONS... STATION/POSITION TIME TEMP WIND PRES WAVE SWELL AIR SEA DIR/SP/G HT/PER HT/PER/DIR (UTC) (F) (DEG/KT/KT) (MB) (FT/S) (FT/S/D) BUOY 41004 0150 72 75 150/ 19/ 21 1016.8F 4/ 4 2/ 80/ 8 BUOY 41008 0150 68 65 150/ 8/ 10 1016.7R 4/ 5 3/ 80/ 5 FOLLY BEACH CMAN 0100 62 50/ 7/ 9 1018.2S CAPERS NEARSHORE 0108 65 62 140/ 8/ 12 1017.4F FRIPP NEARSHORE 0108 65 62 80/ 2/ 4 1017.0R STATION/POSITION TIME TEMP WIND PRES WAVE SWELL AIR SEA DIR/SP/G HT/PER HT/PER/DIR (UTC) (F) (DEG/KT/KT) (MB) (FT/S) (FT/S/D) 5E ST. MARYS GA 0130 66 N/A 4/ 5 FRYING PAN BUOY 0150 67 74 120/ 16/ 21 1018.5F 4/ 5 2/ 70/ 9 BUOY 41025 0150 59 75 80/ 4/ 6 1021.7F 4/ 8 3/ 40/ 8 CAPE LOOKOUT NC 0100 53 50/ 13/ 13 1021.1F BUOY 41002 0150 67 73 120/ 10/ 12 1021.9F 4/10 5/ 20/10 BUOY 41010 NOT AVBL ST AUGUSTINE FL 0200 69 68 170/ 13/ 14 1018.1R $$

USA.gov is the U.S. government's official web portal to all federal, state and local government web resources and services.